,,Stat6,,Stat2,,Stat8,,Stat9,,Stat10,,Wind1,,Wind1,
time,status,PA1M_AVG,status,PR1M_SUM,status,RH1M_AVG,status,SR1M_AVG,status,TA1M_AVG,status,W1dAve1m,status,W1sAve1m,
2009-01-17, 00:00:00,VALID,920.013,VALID,0,VALID,91.9535,VALID,0.0169808,VALID,19.4754,VALID,133,VALID,1.56854,
2009-01-17, 00:01:00,VALID,920.027,VALID,0,VALID,92.1112,VALID,0.0169808,VALID,19.4423,VALID,155,VALID,1.73933,
2009-01-17, 00:02:00,VALID,920.01,VALID,0,VALID,92.213,VALID,0,VALID,19.4228,VALID,149,VALID,1.55227,
2009-01-17, 00:03:00,VALID,919.993,VALID,0,VALID,92.3172,VALID,0,VALID,19.3966,VALID,160,VALID,1.06492,
2009-01-17, 00:04:00,VALID,919.982,VALID,0,VALID,92.3821,VALID,0,VALID,19.3741,VALID,148,VALID,1.34357,
2009-01-17, 00:05:00,VALID,919.987,VALID,0,VALID,92.302,VALID,0,VALID,19.3744,VALID,142,VALID,1.50959,
2009-01-17, 00:06:00,VALID,919.962,VALID,0,VALID,92.3083,VALID,0.0169808,VALID,19.3679,VALID,143,VALID,1.25605,
2009-01-17, 00:07:00,VALID,919.939,VALID,0,VALID,92.2117,VALID,0,VALID,19.3806,VALID,148,VALID,1.80238,
2009-01-17, 00:08:00,VALID,919.924,VALID,0,VALID,92.1265,VALID,-0.101885,VALID,19.3918,VALID,159,VALID,1.07757,
2009-01-17, 00:09:00,VALID,919.896,VALID,0,VALID,92.1099,VALID,-0.0849042,VALID,19.3923,VALID,166,VALID,1.95427,
2009-01-17, 00:10:00,VALID,919.88,VALID,0,VALID,92.0731,VALID,-0.101885,VALID,19.4053,VALID,156,VALID,1.57236,
2009-01-17, 00:11:00,VALID,919.877,VALID,0,VALID,92.1074,VALID,-0.0849042,VALID,19.3756,VALID,147,VALID,1.67969,
2009-01-17, 00:12:00,VALID,919.872,VALID,0,VALID,92.213,VALID,-0.0849042,VALID,19.3626,VALID,151,VALID,2.01267,
2009-01-17, 00:13:00,VALID,919.845,VALID,0,VALID,92.0362,VALID,-0.101885,VALID,19.3793,VALID,108,VALID,2.01653,
2009-01-17, 00:14:00,VALID,919.83,VALID,0,VALID,91.5949,VALID,-0.101885,VALID,19.447,VALID,119,VALID,1.92734,
2009-01-17, 00:15:00,VALID,919.83,VALID,0,VALID,91.4678,VALID,-0.0849042,VALID,19.4694,VALID,136,VALID,1.64293,
2009-01-17, 00:16:00,VALID,919.816,VALID,0,VALID,91.6598,VALID,-0.101885,VALID,19.4308,VALID,142,VALID,1.73847,
2009-01-17, 00:17:00,VALID,919.791,VALID,0,VALID,91.8836,VALID,-0.0849042,VALID,19.4085,VALID,145,VALID,1.99437,
2009-01-17, 00:18:00,VALID,919.792,VALID,0,VALID,92.0604,VALID,-0.0679233,VALID,19.3719,VALID,153,VALID,1.98571,
2009-01-17, 00:19:00,VALID,919.793,VALID,0,VALID,92.2765,VALID,-0.0679233,VALID,19.3367,VALID,159,VALID,2.01113,
2009-01-17, 00:20:00,VALID,919.78,VALID,0,VALID,92.5537,VALID,-0.0679233,VALID,19.317,VALID,168,VALID,2.19651,
2009-01-17, 00:21:00,VALID,919.778,VALID,0,VALID,92.5308,VALID,-0.0679233,VALID,19.3367,VALID,167,VALID,2.0972,
2009-01-17, 00:22:00,VALID,919.777,VALID,0,VALID,92.541,VALID,-0.0679233,VALID,19.3299,VALID,167,VALID,2.05711,
2009-01-17, 00:23:00,VALID,919.762,VALID,0,VALID,92.5703,VALID,0,VALID,19.3097,VALID,165,VALID,1.45389,
2009-01-17, 00:24:00,VALID,919.754,VALID,0,VALID,92.6173,VALID,-0.0169808,VALID,19.2838,VALID,173,VALID,1.4814,
2009-01-17, 00:25:00,VALID,919.761,VALID,0,VALID,92.7814,VALID,-0.0509425,VALID,19.2451,VALID,155,VALID,1.61435,
2009-01-17, 00:26:00,VALID,919.746,VALID,0,VALID,92.9785,VALID,-0.0169808,VALID,19.2159,VALID,143,VALID,1.64347,
2009-01-17, 00:27:00,VALID,919.736,VALID,0,VALID,93.1539,VALID,-0.0169808,VALID,19.2032,VALID,152,VALID,1.22347,
2009-01-17, 00:28:00,VALID,919.725,VALID,0,VALID,93.0993,VALID,0,VALID,19.1737,VALID,160,VALID,2.21632,
2009-01-17, 00:29:00,VALID,919.74,VALID,0,VALID,93.1527,VALID,-0.0169808,VALID,19.138,VALID,151,VALID,1.03144,
2009-01-17, 00:30:00,VALID,919.758,VALID,0,VALID,93.435,VALID,-0.0169808,VALID,19.1216,VALID,149,VALID,0.910866,
2009-01-17, 00:31:00,VALID,919.757,VALID,0,VALID,93.5329,VALID,-0.0169808,VALID,19.1118,VALID,140,VALID,1.58103,
2009-01-17, 00:32:00,VALID,919.758,VALID,0,VALID,93.6537,VALID,0.0169808,VALID,19.0991,VALID,153,VALID,1.36403,
2009-01-17, 00:33:00,VALID,919.77,VALID,0,VALID,93.6104,VALID,-0.0169808,VALID,19.1183,VALID,136,VALID,0.856105,
2009-01-17, 00:34:00,VALID,919.777,VALID,0,VALID,93.5965,VALID,0,VALID,19.1056,VALID,153,VALID,0.773615,
2009-01-17, 00:35:00,VALID,919.766,VALID,0,VALID,93.6371,VALID,0,VALID,19.0956,VALID,135,VALID,0.798874,
2009-01-17, 00:36:01,VALID,919.741,VALID,0,VALID,93.6816,VALID,-0.0339617,VALID,19.0829,VALID,144,VALID,0.369549,
2009-01-17, 00:37:00,VALID,919.731,VALID,0,VALID,93.6956,VALID,0,VALID,19.0831,VALID,170,VALID,0.726768,
2009-01-17, 00:38:00,VALID,919.714,VALID,0,VALID,93.7007,VALID,0,VALID,19.0465,VALID,129,VALID,0.102095,
2009-01-17, 00:39:00,VALID,919.691,VALID,0,VALID,93.8203,VALID,-0.0169808,VALID,19.018,VALID,149,VALID,1.16815,
2009-01-17, 00:40:00,VALID,919.672,VALID,0,VALID,93.9093,VALID,0,VALID,19.0145,VALID,142,VALID,1.39043,
2009-01-17, 00:41:01,VALID,919.64,VALID,0,VALID,93.9283,VALID,-0.0339617,VALID,19.0335,VALID,160,VALID,0.695713,
2009-01-17, 00:42:00,VALID,919.654,VALID,0,VALID,93.7274,VALID,0,VALID,19.0792,VALID,153,VALID,0.386814,
2009-01-17, 00:43:00,VALID,919.657,VALID,0,VALID,93.538,VALID,-0.0169808,VALID,19.1058,VALID,141,VALID,0.517578,
2009-01-17, 00:44:00,VALID,919.654,VALID,0,VALID,93.4299,VALID,-0.0339617,VALID,19.1121,VALID,169,VALID,1.22148,
2009-01-17, 00:45:00,VALID,919.654,VALID,0,VALID,93.2404,VALID,-0.0849042,VALID,19.1153,VALID,182,VALID,1.62463,
2009-01-17, 00:46:00,VALID,919.646,VALID,0,VALID,93.229,VALID,-0.0339617,VALID,19.1188,VALID,176,VALID,1.18768,
2009-01-17, 00:47:00,VALID,919.633,VALID,0,VALID,93.2976,VALID,-0.0679233,VALID,19.1056,VALID,166,VALID,0.489826,
2009-01-17, 00:48:00,VALID,919.625,VALID,0,VALID,93.4642,VALID,-0.0169808,VALID,19.0926,VALID,164,VALID,1.48935,
2009-01-17, 00:49:00,VALID,919.624,VALID,0,VALID,93.4935,VALID,-0.0169808,VALID,19.0891,VALID,159,VALID,1.3948,
2009-01-17, 00:50:00,VALID,919.619,VALID,0,VALID,93.4553,VALID,-0.0339617,VALID,19.0796,VALID,148,VALID,0.878736,
2009-01-17, 00:51:00,VALID,919.592,VALID,0,VALID,93.5621,VALID,0,VALID,19.0465,VALID,157,VALID,0.191692,
2009-01-17, 00:52:00,VALID,919.585,VALID,0,VALID,93.5926,VALID,-0.0169808,VALID,19.0766,VALID,140,VALID,0.206101,
2009-01-17, 00:53:00,VALID,919.58,VALID,0,VALID,93.5265,VALID,-0.135847,VALID,19.0644,VALID,166,VALID,0.286337,
2009-01-17, 00:54:00,VALID,919.557,VALID,0,VALID,93.5723,VALID,-0.118866,VALID,19.0549,VALID,159,VALID,0.0684956,
2009-01-17, 00:55:00,VALID,919.542,VALID,0,VALID,93.6371,VALID,-0.135847,VALID,19.0544,VALID,163,VALID,1.20863,
2009-01-17, 00:56:00,VALID,919.53,VALID,0,VALID,93.6003,VALID,-0.152827,VALID,19.0684,VALID,154,VALID,1.02805,
2009-01-17, 00:57:01,VALID,919.517,VALID,0,VALID,93.6702,VALID,-0.118866,VALID,19.0487,VALID,145,VALID,0.639695,
2009-01-17, 00:58:00,VALID,919.498,VALID,0,VALID,93.7147,VALID,-0.118866,VALID,19.0419,VALID,161,VALID,0.760356,
2009-01-17, 00:59:00,VALID,919.493,VALID,0,VALID,93.702,VALID,-0.118866,VALID,19.0289,VALID,170,VALID,0.169643,
2009-01-17, 01:00:00,VALID,919.471,VALID,0,VALID,93.7923,VALID,-0.101885,VALID,19,VALID,182,VALID,0.367535,
2009-01-17, 01:01:01,VALID,919.452,VALID,0,VALID,93.8749,VALID,-0.152827,VALID,19.0032,VALID,171,VALID,0.211119,
2009-01-17, 01:02:00,VALID,919.451,VALID,0,VALID,93.8457,VALID,-0.118866,VALID,19.0259,VALID,168,VALID,0.078125,
2009-01-17, 01:03:00,VALID,919.438,VALID,0,VALID,93.8025,VALID,-0.135847,VALID,19.0229,VALID,179,VALID,0.107701,
2009-01-17, 01:04:00,VALID,919.412,VALID,0,VALID,93.7859,VALID,-0.101885,VALID,19.0225,VALID,163,VALID,0.346657,
2009-01-17, 01:05:01,VALID,919.409,VALID,0,VALID,93.6499,VALID,-0.101885,VALID,19.0454,VALID,168,VALID,0.00114329,
2009-01-17, 01:06:00,VALID,919.405,VALID,0,VALID,93.5113,VALID,-0.0849042,VALID,19.0417,VALID,158,VALID,0.540923,
2009-01-17, 01:07:00,VALID,919.4,VALID,0,VALID,93.5316,VALID,-0.0679233,VALID,19.0155,VALID,172,VALID,0.593928,
2009-01-17, 01:08:01,VALID,919.395,VALID,0,VALID,93.5748,VALID,-0.0679233,VALID,19.0148,VALID,170,VALID,0.864329,
2009-01-17, 01:09:00,VALID,919.391,VALID,0,VALID,93.585,VALID,-0.0849042,VALID,19.008,VALID,142,VALID,0.971912,
2009-01-17, 01:10:01,VALID,919.383,VALID,0,VALID,93.5392,VALID,-0.0679233,VALID,19.0016,VALID,169,VALID,0.247514,
2009-01-17, 01:11:01,VALID,919.37,VALID,0,VALID,93.7122,VALID,-0.0169808,VALID,18.9689,VALID,163,VALID,0.33689,
2009-01-17, 01:12:01,VALID,919.367,VALID,0,VALID,93.7338,VALID,0,VALID,19.0018,VALID,165,VALID,0.569586,
2009-01-17, 01:13:00,VALID,919.34,VALID,0,VALID,93.585,VALID,-0.0339617,VALID,19.018,VALID,143,VALID,0.439918,
2009-01-17, 01:14:01,VALID,919.32,VALID,0,VALID,93.5519,VALID,0,VALID,19.0016,VALID,158,VALID,0.818309,
2009-01-17, 01:15:01,VALID,919.296,VALID,0,VALID,93.6384,VALID,-0.0169808,VALID,18.9821,VALID,167,VALID,0.416159,
2009-01-17, 01:16:01,VALID,919.283,VALID,0,VALID,93.6728,VALID,-0.0339617,VALID,18.9788,VALID,161,VALID,0.319931,
2009-01-17, 01:17:01,VALID,919.275,VALID,0,VALID,93.6448,VALID,-0.0339617,VALID,18.9951,VALID,154,VALID,0.526344,
2009-01-17, 01:18:01,VALID,919.274,VALID,0,VALID,93.6346,VALID,-0.0339617,VALID,18.9758,VALID,143,VALID,0.592607,
2009-01-17, 01:19:01,VALID,919.26,VALID,0,VALID,93.8355,VALID,-0.0849042,VALID,18.9599,VALID,143,VALID,1.21112,
2009-01-17, 01:20:01,VALID,919.247,VALID,0,VALID,94.0212,VALID,-0.0169808,VALID,18.9334,VALID,153,VALID,0.622839,
2009-01-17, 01:21:01,VALID,919.256,VALID,0,VALID,94.156,VALID,-0.0509425,VALID,18.9466,VALID,145,VALID,0.216463,
2009-01-17, 01:22:01,VALID,919.258,VALID,0,VALID,94.086,VALID,-0.0339617,VALID,18.9724,VALID,120,VALID,0.535156,
2009-01-17, 01:23:01,VALID,919.249,VALID,0,VALID,94.0644,VALID,-0.0509425,VALID,18.9427,VALID,143,VALID,0.601207,
2009-01-17, 01:24:01,VALID,919.238,VALID,0,VALID,94.1699,VALID,0,VALID,18.911,VALID,156,VALID,0.202785,
2009-01-17, 01:25:00,VALID,919.2,VALID,0,VALID,94.3747,VALID,-0.0849042,VALID,18.9042,VALID,158,VALID,0.143466,
2009-01-17, 01:26:00,VALID,919.199,VALID,0,VALID,94.5069,VALID,-0.0509425,VALID,18.9012,VALID,154,VALID,1.82882,
2009-01-17, 01:27:00,VALID,919.19,VALID,0,VALID,94.5552,VALID,-0.0169808,VALID,18.888,VALID,153,VALID,1.42857,
2009-01-17, 01:28:00,VALID,919.194,VALID,0,VALID,94.5616,VALID,-0.0679233,VALID,18.8883,VALID,140,VALID,0.828852,
2009-01-17, 01:29:00,VALID,919.18,VALID,0,VALID,94.573,VALID,-0.0679233,VALID,18.8913,VALID,145,VALID,1.31603,
2009-01-17, 01:30:00,VALID,919.167,VALID,0,VALID,94.5718,VALID,-0.0509425,VALID,18.8915,VALID,147,VALID,1.42472,
2009-01-17, 01:31:00,VALID,919.161,VALID,0,VALID,94.5667,VALID,-0.0339617,VALID,18.9142,VALID,150,VALID,1.69903,
2009-01-17, 01:32:00,VALID,919.141,VALID,0,VALID,94.395,VALID,-0.0509425,VALID,18.9304,VALID,121,VALID,1.49795,
2009-01-17, 01:33:00,VALID,919.14,VALID,0,VALID,94.3747,VALID,-0.0679233,VALID,18.9142,VALID,138,VALID,1.12731,
2009-01-17, 01:34:00,VALID,919.135,VALID,0,VALID,94.5069,VALID,-0.101885,VALID,18.8883,VALID,146,VALID,1.60352,
2009-01-17, 01:35:00,VALID,919.128,VALID,0,VALID,94.6748,VALID,-0.101885,VALID,18.8625,VALID,135,VALID,0.508168,
2009-01-17, 01:36:00,VALID,919.123,VALID,0,VALID,94.8363,VALID,-0.0339617,VALID,18.8396,VALID,138,VALID,0.828288,
2009-01-17, 01:37:00,VALID,919.13,VALID,0,VALID,95.0397,VALID,-0.0509425,VALID,18.8104,VALID,145,VALID,1.68936,
2009-01-17, 01:38:00,VALID,919.138,VALID,0,VALID,95.2279,VALID,-0.0169808,VALID,18.8007,VALID,140,VALID,1.43388,
2009-01-17, 01:39:00,VALID,919.118,VALID,0,VALID,95.2699,VALID,-0.0339617,VALID,18.8134,VALID,166,VALID,1.45137,
2009-01-17, 01:40:00,VALID,919.126,VALID,0,VALID,95.1745,VALID,-0.0849042,VALID,18.8526,VALID,152,VALID,1.98685,
2009-01-17, 01:41:00,VALID,919.125,VALID,0,VALID,95.041,VALID,-0.0679233,VALID,18.8818,VALID,152,VALID,1.4499,
2009-01-17, 01:42:00,VALID,919.123,VALID,0,VALID,95.0283,VALID,-0.0509425,VALID,18.8915,VALID,153,VALID,2.00446,
2009-01-17, 01:43:00,VALID,919.12,VALID,0,VALID,94.9571,VALID,-0.0679233,VALID,18.9107,VALID,157,VALID,1.96467,
2009-01-17, 01:44:00,VALID,919.116,VALID,0,VALID,94.8172,VALID,-0.0169808,VALID,18.9239,VALID,147,VALID,1.39698,
2009-01-17, 01:45:00,VALID,919.132,VALID,0,VALID,94.849,VALID,-0.0339617,VALID,18.8973,VALID,135,VALID,0.958274,
2009-01-17, 01:46:00,VALID,919.117,VALID,0,VALID,95.0041,VALID,-0.0339617,VALID,18.8815,VALID,136,VALID,1.74855,
2009-01-17, 01:47:00,VALID,919.112,VALID,0,VALID,95.055,VALID,0,VALID,18.8713,VALID,136,VALID,1.50874,
2009-01-17, 01:48:00,VALID,919.08,VALID,0,VALID,95.1084,VALID,-0.0169808,VALID,18.8586,VALID,153,VALID,1.02437,
2009-01-17, 01:49:00,VALID,919.048,VALID,0,VALID,95.0702,VALID,-0.0509425,VALID,18.885,VALID,151,VALID,1.90234,
2009-01-17, 01:50:00,VALID,919.048,VALID,0,VALID,94.9558,VALID,0,VALID,18.904,VALID,142,VALID,1.99638,
2009-01-17, 01:51:00,VALID,919.032,VALID,0,VALID,94.8617,VALID,-0.0339617,VALID,18.9175,VALID,144,VALID,1.39695,
2009-01-17, 01:52:00,VALID,919.023,VALID,0,VALID,94.8884,VALID,0,VALID,18.914,VALID,157,VALID,1.72596,
2009-01-17, 01:53:00,VALID,919.014,VALID,0,VALID,94.9215,VALID,0.0679233,VALID,18.9065,VALID,161,VALID,0.751272,
2009-01-17, 01:54:00,VALID,919.024,VALID,0,VALID,94.9749,VALID,0.0169808,VALID,18.8901,VALID,152,VALID,1.59668,
2009-01-17, 01:55:00,VALID,919.023,VALID,0,VALID,95.0613,VALID,0.0339617,VALID,18.8736,VALID,156,VALID,1.48262,
2009-01-17, 01:56:00,VALID,919.024,VALID,0,VALID,95.1669,VALID,0.101885,VALID,18.8636,VALID,153,VALID,1.57222,
2009-01-17, 01:57:00,VALID,919.031,VALID,0,VALID,95.1046,VALID,0.0849042,VALID,18.8863,VALID,149,VALID,2.24201,
2009-01-17, 01:58:00,VALID,919.034,VALID,0,VALID,94.9787,VALID,0.101885,VALID,18.906,VALID,150,VALID,2.04592,
2009-01-17, 01:59:00,VALID,919.031,VALID,0,VALID,94.8426,VALID,0.0849042,VALID,18.9285,VALID,166,VALID,0.669588,
2009-01-17, 02:00:00,VALID,919.035,VALID,0,VALID,94.7155,VALID,0.0849042,VALID,18.9512,VALID,162,VALID,1.40946,
2009-01-17, 02:01:00,VALID,919.031,VALID,0,VALID,94.6633,VALID,0.0339617,VALID,18.9647,VALID,146,VALID,1.24695,
2009-01-17, 02:02:00,VALID,919.01,VALID,0,VALID,94.6913,VALID,0.101885,VALID,18.9547,VALID,144,VALID,2.17667,
2009-01-17, 02:03:00,VALID,919.001,VALID,0,VALID,94.7651,VALID,0.101885,VALID,18.9452,VALID,157,VALID,1.36414,
2009-01-17, 02:04:00,VALID,919,VALID,0,VALID,94.8452,VALID,0.0679233,VALID,18.9288,VALID,138,VALID,1.85955,
2009-01-17, 02:05:00,VALID,918.992,VALID,0,VALID,94.8731,VALID,0.101885,VALID,18.9385,VALID,150,VALID,2.29084,
2009-01-17, 02:06:00,VALID,918.973,VALID,0,VALID,94.7994,VALID,0.0339617,VALID,18.9612,VALID,161,VALID,1.65293,
2009-01-17, 02:07:00,VALID,918.968,VALID,0,VALID,94.7078,VALID,0.0849042,VALID,18.9744,VALID,153,VALID,1.09193,
2009-01-17, 02:08:00,VALID,918.953,VALID,0,VALID,94.6595,VALID,-0.0169808,VALID,18.9749,VALID,173,VALID,1.40569,
2009-01-17, 02:09:00,VALID,918.945,VALID,0,VALID,94.6315,VALID,0.0169808,VALID,18.9814,VALID,159,VALID,0.978237,
2009-01-17, 02:10:00,VALID,918.928,VALID,0,VALID,94.5705,VALID,0,VALID,19.0011,VALID,138,VALID,1.46148,
2009-01-17, 02:11:00,VALID,918.915,VALID,0,VALID,94.4739,VALID,0,VALID,19.0201,VALID,141,VALID,1.86861,
2009-01-17, 02:12:00,VALID,918.903,VALID,0,VALID,94.4332,VALID,0.0169808,VALID,19.0201,VALID,143,VALID,0.579578,
2009-01-17, 02:13:00,VALID,918.875,VALID,0,VALID,94.4446,VALID,0,VALID,19.0238,VALID,143,VALID,1.79531,
2009-01-17, 02:14:00,VALID,918.861,VALID,0,VALID,94.3353,VALID,0.0169808,VALID,19.0432,VALID,151,VALID,1.93661,
2009-01-17, 02:15:00,VALID,918.834,VALID,0,VALID,94.156,VALID,0,VALID,19.0662,VALID,173,VALID,1.6571,
2009-01-17, 02:16:00,VALID,918.823,VALID,0,VALID,94.0377,VALID,0.0169808,VALID,19.0912,VALID,159,VALID,1.68889,
2009-01-17, 02:17:00,VALID,918.808,VALID,0,VALID,94.0021,VALID,0.0339617,VALID,19.0914,VALID,134,VALID,1.20135,
2009-01-17, 02:18:00,VALID,918.777,VALID,0,VALID,94.0364,VALID,0,VALID,19.0752,VALID,160,VALID,1.13114,
2009-01-17, 02:19:00,VALID,918.753,VALID,0,VALID,94.025,VALID,0,VALID,19.0819,VALID,165,VALID,1.59375,
2009-01-17, 02:20:00,VALID,918.753,VALID,0,VALID,93.9728,VALID,0.0169808,VALID,19.0917,VALID,169,VALID,1.6379,
2009-01-17, 02:21:00,VALID,918.759,VALID,0,VALID,93.9665,VALID,-0.0169808,VALID,19.0857,VALID,165,VALID,1.55578,
2009-01-17, 02:22:00,VALID,918.765,VALID,0,VALID,93.9779,VALID,0.0339617,VALID,19.0889,VALID,162,VALID,2.07031,
2009-01-17, 02:23:00,VALID,918.769,VALID,0,VALID,94.0021,VALID,-0.0169808,VALID,19.0724,VALID,154,VALID,0.974466,
2009-01-17, 02:24:00,VALID,918.757,VALID,0,VALID,94.0377,VALID,0,VALID,19.0727,VALID,160,VALID,1.48565,
2009-01-17, 02:25:00,VALID,918.753,VALID,0,VALID,94.0174,VALID,-0.0169808,VALID,19.0729,VALID,152,VALID,1.67551,
2009-01-17, 02:26:00,VALID,918.72,VALID,0,VALID,94.0135,VALID,-0.0169808,VALID,19.0659,VALID,165,VALID,1.97359,
2009-01-17, 02:27:00,VALID,918.702,VALID,0,VALID,94.0275,VALID,0,VALID,19.0662,VALID,159,VALID,1.21215,
2009-01-17, 02:28:00,VALID,918.684,VALID,0,VALID,94.0911,VALID,-0.0339617,VALID,19.0467,VALID,152,VALID,1.5554,
2009-01-17, 02:29:00,VALID,918.663,VALID,0,VALID,94.189,VALID,0,VALID,19.0307,VALID,156,VALID,1.92597,
2009-01-17, 02:30:00,VALID,918.651,VALID,0,VALID,94.2259,VALID,0,VALID,19.0173,VALID,157,VALID,2.1955,
2009-01-17, 02:31:00,VALID,918.643,VALID,0,VALID,94.0085,VALID,0,VALID,19.0535,VALID,165,VALID,1.99128,
2009-01-17, 02:32:00,VALID,918.637,VALID,0,VALID,93.7961,VALID,0,VALID,19.0921,VALID,163,VALID,2.14565,
2009-01-17, 02:33:00,VALID,918.627,VALID,0,VALID,93.6664,VALID,-0.0169808,VALID,19.1046,VALID,150,VALID,1.8365,
2009-01-17, 02:34:00,VALID,918.635,VALID,0,VALID,93.6181,VALID,0,VALID,19.1079,VALID,143,VALID,2.11179,
2009-01-17, 02:35:00,VALID,918.594,VALID,0,VALID,93.6613,VALID,0.0339617,VALID,19.0977,VALID,147,VALID,1.51767,
2009-01-17, 02:36:00,VALID,918.571,VALID,0,VALID,93.7007,VALID,0,VALID,19.0887,VALID,160,VALID,2.69836,
2009-01-17, 02:37:00,VALID,918.537,VALID,0,VALID,93.7173,VALID,-0.0339617,VALID,19.0852,VALID,151,VALID,2.4633,
2009-01-17, 02:38:00,VALID,918.504,VALID,0,VALID,93.7643,VALID,-0.0849042,VALID,19.0732,VALID,165,VALID,2.2033,
2009-01-17, 02:39:00,VALID,918.502,VALID,0,VALID,93.7732,VALID,-0.0679233,VALID,19.0702,VALID,160,VALID,1.92207,
2009-01-17, 02:40:00,VALID,918.485,VALID,0,VALID,93.7363,VALID,-0.0849042,VALID,19.0734,VALID,156,VALID,2.38872,
2009-01-17, 02:41:00,VALID,918.492,VALID,0,VALID,93.6982,VALID,-0.101885,VALID,19.0667,VALID,138,VALID,2.19379,
2009-01-17, 02:42:00,VALID,918.488,VALID,0,VALID,93.6778,VALID,-0.101885,VALID,19.0771,VALID,133,VALID,2.82571,
2009-01-17, 02:43:00,VALID,918.475,VALID,0,VALID,93.538,VALID,-0.101885,VALID,19.1028,VALID,145,VALID,2.76344,
2009-01-17, 02:44:00,VALID,918.449,VALID,0,VALID,93.3281,VALID,-0.101885,VALID,19.136,VALID,154,VALID,2.76228,
2009-01-17, 02:45:00,VALID,918.438,VALID,0,VALID,93.1895,VALID,-0.0849042,VALID,19.1415,VALID,166,VALID,2.43448,
2009-01-17, 02:46:00,VALID,918.417,VALID,0,VALID,93.1094,VALID,-0.101885,VALID,19.1515,VALID,149,VALID,2.21384,
2009-01-17, 02:47:00,VALID,918.408,VALID,0,VALID,93.1285,VALID,-0.101885,VALID,19.1318,VALID,157,VALID,2.74757,
2009-01-17, 02:48:00,VALID,918.418,VALID,0,VALID,93.1501,VALID,-0.101885,VALID,19.1395,VALID,156,VALID,2.44913,
2009-01-17, 02:49:00,VALID,918.426,VALID,0,VALID,93.3231,VALID,-0.101885,VALID,19.1003,VALID,146,VALID,2.34286,
2009-01-17, 02:50:00,VALID,918.418,VALID,0,VALID,93.4655,VALID,-0.101885,VALID,19.0607,VALID,153,VALID,2.00267,
2009-01-17, 02:51:00,VALID,918.419,VALID,0,VALID,93.4947,VALID,-0.135847,VALID,19.0679,VALID,154,VALID,2.49609,
2009-01-17, 02:52:00,VALID,918.398,VALID,0,VALID,93.435,VALID,-0.0679233,VALID,19.0732,VALID,160,VALID,2.27195,
2009-01-17, 02:53:00,VALID,918.394,VALID,0,VALID,93.337,VALID,0,VALID,19.0981,VALID,141,VALID,2.08085,
2009-01-17, 02:54:00,VALID,918.363,VALID,0,VALID,93.3472,VALID,0.0169808,VALID,19.0887,VALID,151,VALID,1.98344,
2009-01-17, 02:55:00,VALID,918.355,VALID,0,VALID,93.5583,VALID,0,VALID,19.0363,VALID,155,VALID,2.21858,
2009-01-17, 02:56:00,VALID,918.333,VALID,0,VALID,93.7007,VALID,0.0169808,VALID,19.0101,VALID,158,VALID,2.14286,
2009-01-17, 02:57:00,VALID,918.339,VALID,0,VALID,93.6677,VALID,-0.0169808,VALID,19.0235,VALID,157,VALID,1.51544,
2009-01-17, 02:58:00,VALID,918.315,VALID,0,VALID,93.5341,VALID,0,VALID,19.0664,VALID,142,VALID,2.57622,
2009-01-17, 02:59:00,VALID,918.301,VALID,0,VALID,93.407,VALID,0.0169808,VALID,19.0764,VALID,136,VALID,1.65536,
2009-01-17, 03:00:00,VALID,918.292,VALID,0,VALID,93.5049,VALID,-0.0339617,VALID,19.0502,VALID,131,VALID,1.94066,
2009-01-17, 03:01:00,VALID,918.279,VALID,0,VALID,93.66,VALID,0,VALID,19.0108,VALID,148,VALID,2.01029,
2009-01-17, 03:02:00,VALID,918.251,VALID,0,VALID,93.7325,VALID,-0.0169808,VALID,18.9879,VALID,154,VALID,1.34059,
2009-01-17, 03:03:00,VALID,918.227,VALID,0,VALID,93.8597,VALID,0.0169808,VALID,18.9659,VALID,151,VALID,2.71684,
2009-01-17, 03:04:00,VALID,918.21,VALID,0,VALID,93.8431,VALID,0,VALID,18.9821,VALID,162,VALID,1.82087,
2009-01-17, 03:05:00,VALID,918.207,VALID,0,VALID,93.8635,VALID,0,VALID,18.9422,VALID,154,VALID,1.40904,
2009-01-17, 03:06:00,VALID,918.218,VALID,0,VALID,94.0021,VALID,0,VALID,18.9193,VALID,144,VALID,1.49805,
2009-01-17, 03:07:00,VALID,918.219,VALID,0,VALID,94.0631,VALID,0.0339617,VALID,18.9265,VALID,141,VALID,1.53416,
2009-01-17, 03:08:00,VALID,918.219,VALID,0,VALID,94.0809,VALID,0.0509425,VALID,18.9257,VALID,139,VALID,1.60633,
2009-01-17, 03:09:00,VALID,918.203,VALID,0,VALID,94.1064,VALID,0.0679233,VALID,18.9225,VALID,152,VALID,1.97106,
2009-01-17, 03:10:00,VALID,918.198,VALID,0,VALID,94.1318,VALID,0.0679233,VALID,18.8928,VALID,161,VALID,1.18767,
2009-01-17, 03:11:00,VALID,918.197,VALID,0,VALID,94.2513,VALID,0.0169808,VALID,18.8734,VALID,163,VALID,1.70566,
2009-01-17, 03:12:00,VALID,918.208,VALID,0,VALID,94.3467,VALID,0.0509425,VALID,18.8542,VALID,159,VALID,1.41286,
2009-01-17, 03:13:00,VALID,918.213,VALID,0,VALID,94.4586,VALID,0.101885,VALID,18.8409,VALID,160,VALID,1.91239,
2009-01-17, 03:14:00,VALID,918.235,VALID,0,VALID,94.3963,VALID,0.0509425,VALID,18.8644,VALID,143,VALID,1.28214,
2009-01-17, 03:15:00,VALID,918.242,VALID,0,VALID,94.4192,VALID,0.0849042,VALID,18.8474,VALID,156,VALID,1.61319,
2009-01-17, 03:16:00,VALID,918.241,VALID,0,VALID,94.4192,VALID,0.0679233,VALID,18.8347,VALID,163,VALID,0.885243,
2009-01-17, 03:17:00,VALID,918.209,VALID,0,VALID,94.5565,VALID,0.0679233,VALID,18.8217,VALID,165,VALID,1.81141,
2009-01-17, 03:18:00,VALID,918.209,VALID,0,VALID,94.5489,VALID,0.101885,VALID,18.8284,VALID,139,VALID,1.38201,
2009-01-17, 03:19:00,VALID,918.179,VALID,0,VALID,94.5985,VALID,0.0849042,VALID,18.8152,VALID,155,VALID,2.31232,
2009-01-17, 03:20:00,VALID,918.171,VALID,0,VALID,94.47,VALID,0.0679233,VALID,18.8606,VALID,164,VALID,1.98765,
2009-01-17, 03:21:00,VALID,918.165,VALID,0,VALID,94.2488,VALID,0.0849042,VALID,18.8764,VALID,159,VALID,1.65126,
2009-01-17, 03:22:00,VALID,918.166,VALID,0,VALID,94.2958,VALID,0.0509425,VALID,18.8572,VALID,168,VALID,1.71418,
2009-01-17, 03:23:00,VALID,918.17,VALID,0,VALID,94.4217,VALID,-0.0169808,VALID,18.8451,VALID,157,VALID,2.2262,
2009-01-17, 03:24:00,VALID,918.184,VALID,0,VALID,94.3581,VALID,-0.0169808,VALID,18.8579,VALID,154,VALID,2.20522,
2009-01-17, 03:25:00,VALID,918.177,VALID,0,VALID,94.2539,VALID,-0.0169808,VALID,18.8781,VALID,150,VALID,2.35547,
2009-01-17, 03:26:00,VALID,918.195,VALID,0,VALID,94.2106,VALID,-0.0169808,VALID,18.8683,VALID,153,VALID,2.32031,
2009-01-17, 03:27:00,VALID,918.185,VALID,0,VALID,94.2895,VALID,-0.0169808,VALID,18.8556,VALID,158,VALID,1.76563,
2009-01-17, 03:28:00,VALID,918.171,VALID,0,VALID,94.3696,VALID,0,VALID,18.8391,VALID,167,VALID,1.94531,
2009-01-17, 03:29:00,VALID,918.148,VALID,0,VALID,94.451,VALID,-0.0339617,VALID,18.8224,VALID,167,VALID,1.98586,
2009-01-17, 03:30:00,VALID,918.142,VALID,0,VALID,94.4586,VALID,-0.0169808,VALID,18.8322,VALID,165,VALID,2.06155,
2009-01-17, 03:31:00,VALID,918.128,VALID,0,VALID,94.3823,VALID,0,VALID,18.8421,VALID,174,VALID,1.96236,
2009-01-17, 03:32:00,VALID,918.175,VALID,0,VALID,94.2539,VALID,-0.0169808,VALID,18.8618,VALID,154,VALID,2.08232,